,,PressureMeas_1m,,PRMeasQMR101_1,,RHStat155_1m_1,,SRMeasQMS101R_1m,,TAStat155_1m_1,,GenWind_1,,GenWind_1,
2017-09-24, 07:00:06,VALID,918.172,VALID,0.0,VALID,93.61,VALID,118.377,VALID,19.442,VALID,114.0,VALID,0.907,
2017-09-24, 07:01:06,VALID,918.176,VALID,0.0,VALID,93.773,VALID,115.938,VALID,19.456,VALID,116.0,VALID,0.965,
2017-09-24, 07:02:06,VALID,918.189,VALID,0.0,VALID,93.612,VALID,113.389,VALID,19.455,VALID,121.0,VALID,1.166,
2017-09-24, 07:03:06,VALID,918.196,VALID,0.0,VALID,92.743,VALID,111.505,VALID,19.426,VALID,120.0,VALID,1.22,
2017-09-24, 07:04:06,VALID,918.204,VALID,0.0,VALID,92.921,VALID,110.269,VALID,19.435,VALID,117.0,VALID,0.969,
2017-09-24, 07:05:06,VALID,918.215,VALID,0.0,VALID,93.64,VALID,109.15,VALID,19.474,VALID,106.0,VALID,0.643,
2017-09-24, 07:06:06,VALID,918.221,VALID,0.0,VALID,93.62,VALID,107.855,VALID,19.512,VALID,111.0,VALID,0.64,
2017-09-24, 07:07:06,VALID,918.232,VALID,0.0,VALID,93.332,VALID,106.69,VALID,19.546,VALID,116.0,VALID,0.754,
2017-09-24, 07:08:06,VALID,918.242,VALID,0.0,VALID,92.909,VALID,106.475,VALID,19.586,VALID,115.0,VALID,0.522,
2017-09-24, 07:09:06,VALID,918.26,VALID,0.0,VALID,93.103,VALID,107.614,VALID,19.629,VALID,113.0,VALID,0.391,
2017-09-24, 07:10:06,VALID,918.264,VALID,0.0,VALID,93.44,VALID,109.516,VALID,19.666,VALID,119.0,VALID,0.314,
2017-09-24, 07:11:06,VALID,918.281,VALID,0.0,VALID,92.892,VALID,111.454,VALID,19.682,VALID,110.0,VALID,0.277,
2017-09-24, 07:12:06,VALID,918.27,VALID,0.0,VALID,92.611,VALID,114.046,VALID,19.699,VALID,131.0,VALID,0.591,
2017-09-24, 07:13:06,VALID,918.28,VALID,0.0,VALID,92.138,VALID,118.081,VALID,19.704,VALID,121.0,VALID,0.5,
2017-09-24, 07:14:06,VALID,918.28,VALID,0.0,VALID,92.514,VALID,123.33,VALID,19.72,VALID,133.0,VALID,0.133,
2017-09-24, 07:15:06,VALID,918.301,VALID,0.0,VALID,93.073,VALID,128.048,VALID,19.757,VALID,135.0,VALID,0.0,
2017-09-24, 07:16:06,VALID,918.3,VALID,0.0,VALID,93.802,VALID,132.932,VALID,19.822,VALID,135.0,VALID,0.046,
2017-09-24, 07:17:06,VALID,918.306,VALID,0.0,VALID,93.415,VALID,138.551,VALID,19.867,VALID,135.0,VALID,0.061,
2017-09-24, 07:18:06,VALID,918.298,VALID,0.0,VALID,92.55,VALID,142.91,VALID,19.899,VALID,135.0,VALID,0.196,
2017-09-24, 07:19:06,VALID,918.336,VALID,0.0,VALID,92.249,VALID,146.537,VALID,19.931,VALID,135.0,VALID,0.244,
2017-09-24, 07:20:06,VALID,918.332,VALID,0.0,VALID,91.681,VALID,159.831,VALID,19.938,VALID,138.0,VALID,0.396,
2017-09-24, 07:21:06,VALID,918.344,VALID,0.0,VALID,91.462,VALID,174.37,VALID,19.948,VALID,136.0,VALID,0.329,
2017-09-24, 07:22:06,VALID,918.349,VALID,0.0,VALID,91.274,VALID,181.108,VALID,19.954,VALID,135.0,VALID,0.259,
2017-09-24, 07:23:06,VALID,918.359,VALID,0.0,VALID,91.639,VALID,195.788,VALID,19.997,VALID,139.0,VALID,0.116,
2017-09-24, 07:24:06,VALID,918.372,VALID,0.0,VALID,93.021,VALID,208.08,VALID,20.098,VALID,95.0,VALID,0.204,
2017-09-24, 07:25:06,VALID,918.383,VALID,0.0,VALID,92.349,VALID,218.413,VALID,20.18,VALID,83.0,VALID,0.368,
2017-09-24, 07:26:06,VALID,918.394,VALID,0.0,VALID,92.191,VALID,228.158,VALID,20.266,VALID,88.0,VALID,0.293,
2017-09-24, 07:27:06,VALID,918.398,VALID,0.0,VALID,91.788,VALID,231.363,VALID,20.331,VALID,81.0,VALID,0.48,
2017-09-24, 07:28:06,VALID,918.398,VALID,0.0,VALID,90.386,VALID,233.509,VALID,20.344,VALID,70.0,VALID,0.54,
2017-09-24, 07:29:06,VALID,918.405,VALID,0.0,VALID,90.849,VALID,238.9,VALID,20.366,VALID,70.0,VALID,0.239,
2017-09-24, 07:30:06,VALID,918.424,VALID,0.0,VALID,92.022,VALID,243.333,VALID,20.432,VALID,70.0,VALID,0.071,
2017-09-24, 07:31:06,VALID,918.45,VALID,0.0,VALID,92.428,VALID,238.204,VALID,20.517,VALID,67.0,VALID,0.172,
2017-09-24, 07:32:06,VALID,918.465,VALID,0.0,VALID,91.733,VALID,248.516,VALID,20.583,VALID,65.0,VALID,0.155,
2017-09-24, 07:33:06,VALID,918.481,VALID,0.0,VALID,92.422,VALID,258.054,VALID,20.673,VALID,48.0,VALID,0.304,
2017-09-24, 07:34:06,VALID,918.492,VALID,0.0,VALID,90.869,VALID,266.098,VALID,20.735,VALID,39.0,VALID,0.45,
2017-09-24, 07:35:06,VALID,918.491,VALID,0.0,VALID,90.353,VALID,262.281,VALID,20.752,VALID,38.0,VALID,0.426,
2017-09-24, 07:36:06,VALID,918.501,VALID,0.0,VALID,90.698,VALID,259.861,VALID,20.786,VALID,21.0,VALID,0.182,
2017-09-24, 07:37:06,VALID,918.488,VALID,0.0,VALID,91.05,VALID,266.965,VALID,20.819,VALID,22.0,VALID,0.543,
2017-09-24, 07:38:06,VALID,918.497,VALID,0.0,VALID,91.098,VALID,268.068,VALID,20.819,VALID,45.0,VALID,0.293,
2017-09-24, 07:39:06,VALID,918.495,VALID,0.0,VALID,91.539,VALID,266.824,VALID,20.856,VALID,18.0,VALID,0.277,
2017-09-24, 07:40:06,VALID,918.496,VALID,0.0,VALID,90.713,VALID,281.432,VALID,20.894,VALID,27.0,VALID,0.242,
2017-09-24, 07:41:06,VALID,918.49,VALID,0.0,VALID,90.175,VALID,293.136,VALID,20.926,VALID,23.0,VALID,0.622,
2017-09-24, 07:42:06,VALID,918.507,VALID,0.0,VALID,90.727,VALID,308.152,VALID,20.991,VALID,24.0,VALID,0.603,
2017-09-24, 07:43:06,VALID,918.522,VALID,0.0,VALID,90.33,VALID,322.132,VALID,21.062,VALID,52.0,VALID,0.711,
2017-09-24, 07:44:06,VALID,918.534,VALID,0.0,VALID,89.718,VALID,338.637,VALID,21.135,VALID,36.0,VALID,0.637,
2017-09-24, 07:45:06,VALID,918.554,VALID,0.0,VALID,89.972,VALID,349.523,VALID,21.214,VALID,39.0,VALID,0.312,
2017-09-24, 07:46:06,VALID,918.564,VALID,0.0,VALID,88.484,VALID,346.807,VALID,21.236,VALID,33.0,VALID,0.434,
2017-09-24, 07:47:06,VALID,918.58,VALID,0.0,VALID,90.098,VALID,274.872,VALID,21.274,VALID,42.0,VALID,0.371,
2017-09-24, 07:48:06,VALID,918.589,VALID,0.0,VALID,91.11,VALID,241.401,VALID,21.368,VALID,39.0,VALID,0.282,
2017-09-24, 07:49:06,VALID,918.601,VALID,0.0,VALID,89.46,VALID,199.263,VALID,21.448,VALID,15.0,VALID,0.719,
2017-09-24, 07:50:06,VALID,918.617,VALID,0.0,VALID,87.885,VALID,196.2,VALID,21.481,VALID,6.0,VALID,0.093,
2017-09-24, 07:51:06,VALID,918.629,VALID,0.0,VALID,88.646,VALID,183.687,VALID,21.536,VALID,15.0,VALID,0.11,
2017-09-24, 07:52:06,VALID,918.644,VALID,0.0,VALID,86.897,VALID,180.562,VALID,21.557,VALID,81.0,VALID,0.179,
2017-09-24, 07:53:06,VALID,918.658,VALID,0.0,VALID,86.542,VALID,181.484,VALID,21.529,VALID,77.0,VALID,0.048,
2017-09-24, 07:54:06,VALID,918.676,VALID,0.0,VALID,88.272,VALID,186.434,VALID,21.546,VALID,30.0,VALID,0.237,
2017-09-24, 07:55:06,VALID,918.693,VALID,0.0,VALID,86.614,VALID,176.953,VALID,21.522,VALID,41.0,VALID,0.091,
2017-09-24, 07:56:06,VALID,918.705,VALID,0.0,VALID,86.395,VALID,168.684,VALID,21.507,VALID,43.0,VALID,0.0,
2017-09-24, 07:57:06,VALID,918.718,VALID,0.0,VALID,87.083,VALID,168.543,VALID,21.532,VALID,61.0,VALID,0.202,
2017-09-24, 07:58:06,VALID,918.715,VALID,0.0,VALID,86.93,VALID,164.616,VALID,21.503,VALID,89.0,VALID,0.282,
2017-09-24, 07:59:06,VALID,918.712,VALID,0.0,VALID,86.897,VALID,170.138,VALID,21.397,VALID,89.0,VALID,0.042,
2017-09-24, 08:00:06,VALID,918.724,VALID,0.0,VALID,88.25,VALID,199.554,VALID,21.378,VALID,87.0,VALID,0.222,
2017-09-24, 08:01:06,VALID,918.714,VALID,0.0,VALID,88.814,VALID,199.364,VALID,21.38,VALID,87.0,VALID,0.22,
2017-09-24, 08:02:06,VALID,918.717,VALID,0.0,VALID,89.415,VALID,186.678,VALID,21.438,VALID,79.0,VALID,0.359,
2017-09-24, 08:03:06,VALID,918.726,VALID,0.0,VALID,89.148,VALID,205.035,VALID,21.479,VALID,53.0,VALID,0.464,
2017-09-24, 08:04:06,VALID,918.734,VALID,0.0,VALID,87.183,VALID,203.15,VALID,21.423,VALID,55.0,VALID,0.448,
2017-09-24, 08:05:06,VALID,918.725,VALID,0.0,VALID,87.402,VALID,206.897,VALID,21.346,VALID,78.0,VALID,0.452,
2017-09-24, 08:06:06,VALID,918.729,VALID,0.0,VALID,87.203,VALID,207.599,VALID,21.292,VALID,84.0,VALID,0.465,
2017-09-24, 08:07:06,VALID,918.741,VALID,0.0,VALID,87.342,VALID,183.911,VALID,21.23,VALID,81.0,VALID,0.199,
2017-09-24, 08:08:06,VALID,918.751,VALID,0.0,VALID,87.871,VALID,185.864,VALID,21.238,VALID,81.0,VALID,0.166,
2017-09-24, 08:09:06,VALID,918.765,VALID,0.0,VALID,87.909,VALID,217.419,VALID,21.265,VALID,81.0,VALID,0.177,
2017-09-24, 08:10:06,VALID,918.786,VALID,0.0,VALID,88.521,VALID,274.868,VALID,21.294,VALID,72.0,VALID,0.146,
2017-09-24, 08:11:06,VALID,918.792,VALID,0.0,VALID,86.319,VALID,261.275,VALID,21.348,VALID,29.0,VALID,0.435,
2017-09-24, 08:12:06,VALID,918.822,VALID,0.0,VALID,85.879,VALID,234.614,VALID,21.409,VALID,39.0,VALID,0.368,
2017-09-24, 08:13:06,VALID,918.842,VALID,0.0,VALID,86.95,VALID,201.936,VALID,21.487,VALID,18.0,VALID,0.428,
2017-09-24, 08:14:06,VALID,918.863,VALID,0.0,VALID,87.214,VALID,186.993,VALID,21.559,VALID,5.0,VALID,0.526,
2017-09-24, 08:15:06,VALID,918.87,VALID,0.0,VALID,86.659,VALID,189.655,VALID,21.588,VALID,1.0,VALID,0.771,
2017-09-24, 08:16:06,VALID,918.887,VALID,0.0,VALID,85.474,VALID,196.95,VALID,21.551,VALID,356.0,VALID,0.526,
2017-09-24, 08:17:06,VALID,918.888,VALID,0.0,VALID,85.7,VALID,193.82,VALID,21.53,VALID,18.0,VALID,0.674,
2017-09-24, 08:18:06,VALID,918.902,VALID,0.0,VALID,86.405,VALID,232.77,VALID,21.513,VALID,38.0,VALID,0.798,
2017-09-24, 08:19:06,VALID,918.908,VALID,0.0,VALID,85.877,VALID,310.032,VALID,21.481,VALID,38.0,VALID,0.957,
2017-09-24, 08:20:06,VALID,918.906,VALID,0.0,VALID,87.426,VALID,347.841,VALID,21.484,VALID,31.0,VALID,0.55,
2017-09-24, 08:21:06,VALID,918.912,VALID,0.0,VALID,89.55,VALID,405.25,VALID,21.593,VALID,31.0,VALID,0.652,
2017-09-24, 08:22:06,VALID,918.904,VALID,0.0,VALID,88.235,VALID,406.108,VALID,21.692,VALID,2.0,VALID,0.617,
2017-09-24, 08:23:06,VALID,918.896,VALID,0.0,VALID,87.157,VALID,408.8,VALID,21.767,VALID,31.0,VALID,0.983,
2017-09-24, 08:24:06,VALID,918.897,VALID,0.0,VALID,84.57,VALID,420.874,VALID,21.763,VALID,43.0,VALID,1.332,
2017-09-24, 08:25:06,VALID,918.897,VALID,0.0,VALID,85.403,VALID,443.174,VALID,21.832,VALID,32.0,VALID,0.72,
2017-09-24, 08:26:06,VALID,918.91,VALID,0.0,VALID,86.024,VALID,465.909,VALID,21.93,VALID,346.0,VALID,0.588,
2017-09-24, 08:27:06,VALID,918.911,VALID,0.0,VALID,85.958,VALID,423.07,VALID,22.059,VALID,344.0,VALID,1.03,
2017-09-24, 08:28:06,VALID,918.926,VALID,0.0,VALID,84.225,VALID,449.478,VALID,22.204,VALID,8.0,VALID,0.678,
2017-09-24, 08:29:06,VALID,918.932,VALID,0.0,VALID,83.429,VALID,448.616,VALID,22.293,VALID,6.0,VALID,0.435,
2017-09-24, 08:30:06,VALID,918.935,VALID,0.0,VALID,81.076,VALID,509.911,VALID,22.323,VALID,6.0,VALID,1.275,
2017-09-24, 08:31:06,VALID,918.956,VALID,0.0,VALID,78.818,VALID,598.019,VALID,22.309,VALID,356.0,VALID,1.373,
2017-09-24, 08:32:06,VALID,918.956,VALID,0.0,VALID,79.849,VALID,617.308,VALID,22.309,VALID,342.0,VALID,0.823,
2017-09-24, 08:33:06,VALID,918.982,VALID,0.0,VALID,80.311,VALID,614.45,VALID,22.389,VALID,343.0,VALID,1.026,
2017-09-24, 08:34:06,VALID,919.0,VALID,0.0,VALID,77.939,VALID,584.274,VALID,22.506,VALID,351.0,VALID,1.231,
2017-09-24, 08:35:06,VALID,919.004,VALID,0.0,VALID,78.758,VALID,531.711,VALID,22.521,VALID,345.0,VALID,0.787,
2017-09-24, 08:36:06,VALID,919.023,VALID,0.0,VALID,81.037,VALID,524.51,VALID,22.703,VALID,35.0,VALID,1.0,
2017-09-24, 08:37:06,VALID,919.024,VALID,0.0,VALID,78.59,VALID,505.287,VALID,22.956,VALID,341.0,VALID,0.575,
2017-09-24, 08:38:06,VALID,919.046,VALID,0.0,VALID,76.859,VALID,467.728,VALID,23.057,VALID,358.0,VALID,0.951,
2017-09-24, 08:39:06,VALID,919.051,VALID,0.0,VALID,76.113,VALID,444.607,VALID,22.977,VALID,338.0,VALID,0.291,
2017-09-24, 08:40:06,VALID,919.07,VALID,0.0,VALID,77.582,VALID,422.871,VALID,23.053,VALID,339.0,VALID,0.782,
2017-09-24, 08:41:06,VALID,919.086,VALID,0.0,VALID,78.423,VALID,444.856,VALID,23.119,VALID,353.0,VALID,1.209,
2017-09-24, 08:42:06,VALID,919.098,VALID,0.0,VALID,77.883,VALID,478.774,VALID,23.024,VALID,294.0,VALID,0.807,
2017-09-24, 08:43:06,VALID,919.126,VALID,0.0,VALID,78.484,VALID,506.338,VALID,22.779,VALID,311.0,VALID,0.382,
2017-09-24, 08:44:06,VALID,919.118,VALID,0.0,VALID,81.213,VALID,477.097,VALID,22.739,VALID,352.0,VALID,1.143,
2017-09-24, 08:45:06,VALID,919.12,VALID,0.0,VALID,81.005,VALID,454.272,VALID,22.686,VALID,336.0,VALID,0.62,
2017-09-24, 08:46:06,VALID,919.113,VALID,0.0,VALID,78.372,VALID,458.612,VALID,22.709,VALID,332.0,VALID,0.71,
2017-09-24, 08:47:06,VALID,919.108,VALID,0.0,VALID,77.828,VALID,450.759,VALID,22.757,VALID,14.0,VALID,1.641,
2017-09-24, 08:48:06,VALID,919.119,VALID,0.0,VALID,78.127,VALID,432.411,VALID,22.735,VALID,13.0,VALID,1.398,
2017-09-24, 08:49:06,VALID,919.128,VALID,0.0,VALID,78.362,VALID,426.026,VALID,22.653,VALID,12.0,VALID,1.193,
2017-09-24, 08:50:06,VALID,919.13,VALID,0.0,VALID,80.577,VALID,431.418,VALID,22.624,VALID,3.0,VALID,1.0,
2017-09-24, 08:51:06,VALID,919.135,VALID,0.0,VALID,80.624,VALID,391.937,VALID,22.71,VALID,359.0,VALID,1.293,
2017-09-24, 08:52:06,VALID,919.157,VALID,0.0,VALID,78.123,VALID,445.339,VALID,22.75,VALID,348.0,VALID,0.834,
2017-09-24, 08:53:06,VALID,919.165,VALID,0.0,VALID,79.958,VALID,415.322,VALID,22.744,VALID,4.0,VALID,0.635,
2017-09-24, 08:54:06,VALID,919.173,VALID,0.0,VALID,80.961,VALID,425.454,VALID,22.768,VALID,341.0,VALID,0.67,
2017-09-24, 08:55:06,VALID,919.165,VALID,0.0,VALID,81.822,VALID,527.132,VALID,22.814,VALID,9.0,VALID,1.182,
2017-09-24, 08:56:06,VALID,919.174,VALID,0.0,VALID,82.848,VALID,482.387,VALID,22.916,VALID,21.0,VALID,0.82,
2017-09-24, 08:57:06,VALID,919.169,VALID,0.0,VALID,82.133,VALID,570.104,VALID,23.092,VALID,343.0,VALID,0.496,
2017-09-24, 08:58:06,VALID,919.183,VALID,0.0,VALID,81.271,VALID,542.254,VALID,23.25,VALID,9.0,VALID,1.133,
2017-09-24, 08:59:06,VALID,919.181,VALID,0.0,VALID,78.384,VALID,507.638,VALID,23.389,VALID,343.0,VALID,1.157,
2017-09-24, 09:00:06,VALID,919.194,VALID,0.0,VALID,77.322,VALID,544.927,VALID,23.333,VALID,7.0,VALID,1.458,
2017-09-24, 09:01:06,VALID,919.227,VALID,0.0,VALID,76.297,VALID,577.949,VALID,23.366,VALID,6.0,VALID,0.536,
2017-09-24, 09:02:06,VALID,919.248,VALID,0.0,VALID,75.986,VALID,585.829,VALID,23.439,VALID,341.0,VALID,0.548,
2017-09-24, 09:03:06,VALID,919.268,VALID,0.0,VALID,74.499,VALID,765.5,VALID,23.462,VALID,294.0,VALID,0.855,
2017-09-24, 09:04:06,VALID,919.279,VALID,0.0,VALID,77.383,VALID,604.777,VALID,23.498,VALID,44.0,VALID,0.902,
2017-09-24, 09:05:06,VALID,919.305,VALID,0.0,VALID,77.181,VALID,499.018,VALID,23.821,VALID,320.0,VALID,0.966,
2017-09-24, 09:06:06,VALID,919.265,VALID,0.0,VALID,71.852,VALID,630.011,VALID,23.847,VALID,275.0,VALID,0.583,
2017-09-24, 09:07:06,VALID,919.248,VALID,0.0,VALID,73.522,VALID,696.032,VALID,23.806,VALID,18.0,VALID,1.461,
2017-09-24, 09:08:06,VALID,919.245,VALID,0.0,VALID,75.622,VALID,692.196,VALID,23.775,VALID,10.0,VALID,1.404,
2017-09-24, 09:09:06,VALID,919.238,VALID,0.0,VALID,74.773,VALID,683.213,VALID,23.882,VALID,305.0,VALID,0.843,
2017-09-24, 09:10:06,VALID,919.211,VALID,0.0,VALID,71.647,VALID,703.378,VALID,23.889,VALID,348.0,VALID,1.057,
2017-09-24, 09:11:06,VALID,919.203,VALID,0.0,VALID,74.1,VALID,642.973,VALID,24.072,VALID,356.0,VALID,0.58,
2017-09-24, 09:12:06,VALID,919.199,VALID,0.0,VALID,72.188,VALID,585.63,VALID,24.167,VALID,359.0,VALID,1.102,
2017-09-24, 09:13:06,VALID,919.188,VALID,0.0,VALID,73.744,VALID,566.888,VALID,24.145,VALID,16.0,VALID,0.972,
2017-09-24, 09:14:06,VALID,919.184,VALID,0.0,VALID,73.915,VALID,624.999,VALID,24.156,VALID,19.0,VALID,0.727,
2017-09-24, 09:15:06,VALID,919.181,VALID,0.0,VALID,73.399,VALID,498.035,VALID,24.317,VALID,343.0,VALID,0.716,
2017-09-24, 09:16:06,VALID,919.195,VALID,0.0,VALID,71.364,VALID,390.671,VALID,24.348,VALID,347.0,VALID,1.359,
2017-09-24, 09:17:06,VALID,919.167,VALID,0.0,VALID,71.685,VALID,378.609,VALID,24.107,VALID,24.0,VALID,1.711,
2017-09-24, 09:18:06,VALID,919.179,VALID,0.0,VALID,73.496,VALID,394.847,VALID,23.956,VALID,16.0,VALID,1.194,
2017-09-24, 09:19:06,VALID,919.167,VALID,0.0,VALID,72.598,VALID,476.588,VALID,23.935,VALID,6.0,VALID,0.811,
2017-09-24, 09:20:06,VALID,919.168,VALID,0.0,VALID,73.103,VALID,464.189,VALID,23.878,VALID,347.0,VALID,1.163,
2017-09-24, 09:21:06,VALID,919.16,VALID,0.0,VALID,73.164,VALID,566.725,VALID,23.607,VALID,9.0,VALID,1.328,
2017-09-24, 09:22:06,VALID,919.15,VALID,0.0,VALID,76.672,VALID,580.334,VALID,23.414,VALID,14.0,VALID,1.199,
2017-09-24, 09:23:06,VALID,919.16,VALID,0.0,VALID,76.659,VALID,559.796,VALID,23.468,VALID,32.0,VALID,0.506,
2017-09-24, 09:24:06,VALID,919.17,VALID,0.0,VALID,78.058,VALID,596.148,VALID,23.67,VALID,356.0,VALID,0.649,
2017-09-24, 09:25:06,VALID,919.183,VALID,0.0,VALID,75.457,VALID,554.736,VALID,23.899,VALID,349.0,VALID,1.042,
2017-09-24, 09:26:06,VALID,919.211,VALID,0.0,VALID,74.618,VALID,599.252,VALID,23.915,VALID,301.0,VALID,1.21,
2017-09-24, 09:27:06,VALID,919.226,VALID,0.0,VALID,73.21,VALID,521.333,VALID,23.827,VALID,290.0,VALID,0.15,
2017-09-24, 09:28:06,VALID,919.25,VALID,0.0,VALID,75.112,VALID,500.121,VALID,23.935,VALID,328.0,VALID,0.67,
2017-09-24, 09:29:06,VALID,919.275,VALID,0.0,VALID,76.416,VALID,515.411,VALID,23.986,VALID,357.0,VALID,1.177,
2017-09-24, 09:30:06,VALID,919.282,VALID,0.0,VALID,76.364,VALID,487.874,VALID,23.909,VALID,358.0,VALID,1.89,
2017-09-24, 09:31:06,VALID,919.309,VALID,0.0,VALID,72.761,VALID,488.393,VALID,23.747,VALID,41.0,VALID,0.217,
2017-09-24, 09:32:06,VALID,919.318,VALID,0.0,VALID,72.61,VALID,447.737,VALID,23.743,VALID,13.0,VALID,1.06,
2017-09-24, 09:33:06,VALID,919.331,VALID,0.0,VALID,74.438,VALID,431.463,VALID,23.726,VALID,14.0,VALID,1.241,
2017-09-24, 09:34:06,VALID,919.346,VALID,0.0,VALID,75.972,VALID,426.69,VALID,23.824,VALID,356.0,VALID,0.781,
2017-09-24, 09:35:06,VALID,919.36,VALID,0.0,VALID,76.327,VALID,449.907,VALID,23.908,VALID,353.0,VALID,0.723,
2017-09-24, 09:36:06,VALID,919.378,VALID,0.0,VALID,77.225,VALID,546.01,VALID,23.935,VALID,321.0,VALID,0.396,
2017-09-24, 09:37:06,VALID,919.373,VALID,0.0,VALID,72.236,VALID,585.852,VALID,23.921,VALID,270.0,VALID,0.901,
2017-09-24, 09:38:06,VALID,919.369,VALID,0.0,VALID,73.0,VALID,502.26,VALID,23.727,VALID,295.0,VALID,1.041,
2017-09-24, 09:39:06,VALID,919.38,VALID,0.0,VALID,77.876,VALID,455.777,VALID,23.765,VALID,20.0,VALID,0.604,
2017-09-24, 09:40:06,VALID,919.384,VALID,0.0,VALID,75.284,VALID,418.246,VALID,23.913,VALID,3.0,VALID,0.261,
2017-09-24, 09:41:06,VALID,919.382,VALID,0.0,VALID,74.204,VALID,424.046,VALID,23.981,VALID,329.0,VALID,0.624,
2017-09-24, 09:42:06,VALID,919.387,VALID,0.0,VALID,75.155,VALID,502.858,VALID,24.016,VALID,327.0,VALID,0.408,
2017-09-24, 09:43:06,VALID,919.366,VALID,0.0,VALID,75.068,VALID,425.512,VALID,24.17,VALID,266.0,VALID,0.372,
2017-09-24, 09:44:06,VALID,919.367,VALID,0.0,VALID,74.348,VALID,401.763,VALID,24.189,VALID,349.0,VALID,0.475,
2017-09-24, 09:45:06,VALID,919.363,VALID,0.0,VALID,72.262,VALID,536.661,VALID,24.082,VALID,14.0,VALID,1.141,
2017-09-24, 09:46:06,VALID,919.349,VALID,0.0,VALID,74.068,VALID,955.077,VALID,24.072,VALID,18.0,VALID,0.491,
2017-09-24, 09:47:06,VALID,919.334,VALID,0.0,VALID,72.445,VALID,866.238,VALID,24.378,VALID,23.0,VALID,0.736,
2017-09-24, 09:48:06,VALID,919.324,VALID,0.0,VALID,72.829,VALID,754.264,VALID,24.736,VALID,60.0,VALID,0.564,
2017-09-24, 09:49:06,VALID,919.338,VALID,0.0,VALID,72.635,VALID,699.97,VALID,25.128,VALID,351.0,VALID,0.298,
2017-09-24, 09:50:06,VALID,919.322,VALID,0.0,VALID,68.842,VALID,510.938,VALID,25.189,VALID,281.0,VALID,0.85,
2017-09-24, 09:51:06,VALID,919.333,VALID,0.0,VALID,71.152,VALID,380.15,VALID,24.963,VALID,352.0,VALID,1.296,
2017-09-24, 09:52:06,VALID,919.311,VALID,0.0,VALID,70.369,VALID,457.733,VALID,24.561,VALID,354.0,VALID,1.441,
2017-09-24, 09:53:06,VALID,919.312,VALID,0.0,VALID,70.875,VALID,609.333,VALID,24.258,VALID,353.0,VALID,1.616,
2017-09-24, 09:54:06,VALID,919.292,VALID,0.0,VALID,71.833,VALID,792.115,VALID,23.977,VALID,12.0,VALID,1.897,
2017-09-24, 09:55:06,VALID,919.283,VALID,0.0,VALID,74.057,VALID,465.688,VALID,23.907,VALID,25.0,VALID,1.356,
2017-09-24, 09:56:06,VALID,919.295,VALID,0.0,VALID,74.2,VALID,658.058,VALID,24.058,VALID,331.0,VALID,0.676,
2017-09-24, 09:57:06,VALID,919.307,VALID,0.0,VALID,73.103,VALID,856.917,VALID,24.299,VALID,325.0,VALID,0.475,
2017-09-24, 09:58:06,VALID,919.281,VALID,0.0,VALID,71.298,VALID,915.551,VALID,24.416,VALID,347.0,VALID,0.937,
2017-09-24, 09:59:06,VALID,919.282,VALID,0.0,VALID,72.69,VALID,900.307,VALID,24.658,VALID,23.0,VALID,0.643,
2017-09-24, 10:00:06,VALID,919.286,VALID,0.0,VALID,68.87,VALID,882.474,VALID,24.736,VALID,311.0,VALID,1.612,
2017-09-24, 10:01:06,VALID,919.278,VALID,0.0,VALID,69.893,VALID,874.041,VALID,24.533,VALID,331.0,VALID,0.929,
2017-09-24, 10:02:06,VALID,919.274,VALID,0.0,VALID,71.947,VALID,852.624,VALID,24.583,VALID,359.0,VALID,1.094,
2017-09-24, 10:03:06,VALID,919.25,VALID,0.0,VALID,68.195,VALID,860.297,VALID,24.511,VALID,7.0,VALID,1.114,
2017-09-24, 10:04:06,VALID,919.253,VALID,0.0,VALID,70.065,VALID,856.271,VALID,24.408,VALID,273.0,VALID,0.714,
2017-09-24, 10:05:06,VALID,919.228,VALID,0.0,VALID,70.397,VALID,860.826,VALID,24.456,VALID,259.0,VALID,0.258,
2017-09-24, 10:06:06,VALID,919.223,VALID,0.0,VALID,70.124,VALID,871.725,VALID,24.726,VALID,38.0,VALID,0.282,
2017-09-24, 10:07:06,VALID,919.21,VALID,0.0,VALID,69.467,VALID,902.748,VALID,24.967,VALID,199.0,VALID,0.107,
2017-09-24, 10:08:06,VALID,919.186,VALID,0.0,VALID,72.209,VALID,915.793,VALID,25.341,VALID,6.0,VALID,1.005,
2017-09-24, 10:09:06,VALID,919.205,VALID,0.0,VALID,69.453,VALID,756.677,VALID,25.677,VALID,72.0,VALID,0.684,
2017-09-24, 10:10:06,VALID,919.218,VALID,0.0,VALID,67.286,VALID,940.097,VALID,25.803,VALID,163.0,VALID,0.503,
2017-09-24, 10:11:06,VALID,919.207,VALID,0.0,VALID,69.019,VALID,499.738,VALID,25.98,VALID,53.0,VALID,0.507,
2017-09-24, 10:12:06,VALID,919.224,VALID,0.0,VALID,68.224,VALID,474.256,VALID,26.175,VALID,350.0,VALID,0.607,
2017-09-24, 10:13:06,VALID,919.212,VALID,0.0,VALID,67.866,VALID,459.761,VALID,26.086,VALID,7.0,VALID,0.768,
2017-09-24, 10:14:06,VALID,919.206,VALID,0.0,VALID,68.781,VALID,456.697,VALID,26.029,VALID,345.0,VALID,0.457,
2017-09-24, 10:15:06,VALID,919.203,VALID,0.0,VALID,67.944,VALID,494.142,VALID,26.04,VALID,254.0,VALID,0.298,
2017-09-24, 10:16:06,VALID,919.193,VALID,0.0,VALID,65.504,VALID,669.08,VALID,25.874,VALID,232.0,VALID,0.306,
2017-09-24, 10:17:06,VALID,919.164,VALID,0.0,VALID,65.302,VALID,487.513,VALID,25.546,VALID,241.0,VALID,0.515,
2017-09-24, 10:18:06,VALID,919.143,VALID,0.0,VALID,66.22,VALID,480.367,VALID,25.214,VALID,340.0,VALID,0.657,
2017-09-24, 10:19:06,VALID,919.115,VALID,0.0,VALID,69.964,VALID,755.088,VALID,24.967,VALID,19.0,VALID,1.3,
2017-09-24, 10:20:06,VALID,919.106,VALID,0.0,VALID,73.905,VALID,686.782,VALID,25.009,VALID,4.0,VALID,1.704,
2017-09-24, 10:21:06,VALID,919.09,VALID,0.0,VALID,69.849,VALID,400.657,VALID,24.859,VALID,18.0,VALID,1.852,
2017-09-24, 10:22:06,VALID,919.091,VALID,0.0,VALID,71.603,VALID,399.028,VALID,24.773,VALID,24.0,VALID,1.442,
2017-09-24, 10:23:06,VALID,919.089,VALID,0.0,VALID,70.776,VALID,862.661,VALID,24.798,VALID,1.0,VALID,1.538,
2017-09-24, 10:24:06,VALID,919.07,VALID,0.0,VALID,70.999,VALID,902.368,VALID,24.739,VALID,21.0,VALID,0.891,
2017-09-24, 10:25:06,VALID,919.059,VALID,0.0,VALID,72.161,VALID,976.646,VALID,24.949,VALID,10.0,VALID,1.145,
2017-09-24, 10:26:06,VALID,919.032,VALID,0.0,VALID,71.011,VALID,993.001,VALID,25.208,VALID,19.0,VALID,1.227,
2017-09-24, 10:27:06,VALID,919.027,VALID,0.0,VALID,72.878,VALID,1003.634,VALID,25.455,VALID,351.0,VALID,0.997,
2017-09-24, 10:28:06,VALID,919.017,VALID,0.0,VALID,70.864,VALID,945.634,VALID,25.832,VALID,42.0,VALID,1.092,
2017-09-24, 10:29:06,VALID,919.018,VALID,0.0,VALID,68.37,VALID,919.261,VALID,26.125,VALID,341.0,VALID,0.98,
2017-09-24, 10:30:06,VALID,919.051,VALID,0.0,VALID,69.024,VALID,1005.891,VALID,26.162,VALID,55.0,VALID,0.506,
2017-09-24, 10:31:06,VALID,919.046,VALID,0.0,VALID,66.773,VALID,988.836,VALID,26.154,VALID,11.0,VALID,1.011,
2017-09-24, 10:32:06,VALID,919.047,VALID,0.0,VALID,67.854,VALID,971.566,VALID,26.124,VALID,289.0,VALID,0.804,
2017-09-24, 10:33:06,VALID,919.036,VALID,0.0,VALID,65.776,VALID,957.095,VALID,25.878,VALID,318.0,VALID,0.638,
2017-09-24, 10:34:06,VALID,919.02,VALID,0.0,VALID,67.152,VALID,954.438,VALID,25.774,VALID,286.0,VALID,0.495,
2017-09-24, 10:35:06,VALID,919.019,VALID,0.0,VALID,69.555,VALID,968.504,VALID,25.898,VALID,52.0,VALID,0.385,
2017-09-24, 10:36:06,VALID,919.011,VALID,0.0,VALID,68.619,VALID,970.294,VALID,26.238,VALID,222.0,VALID,0.259,